Lid_Strength_Index
6 6 6 5 5 5 5 5 7 9 8 8 8 7 6 5 5 5 5 3 2 2 2 2 2 1 1 1 1 0 -1 -1 -1 -1 -1 -1 -1 -1
7 7 7 6 6 6 6 5 6 7 9 7 7 7 6 5 5 5 5 4 3 2 2 2 2 2 1 1 1 1 0 -0 -1 -1 -1 -1 -1 -1
9 8 8 8 9 9 8 7 7 7 9 7 6 6 7 7 7 6 5 5 5 3 2 2 2 2 1 1 1 1 1 0 -0 -1 -0 -0 -1 -1
11 10 11 10 11 11 10 10 11 10 9 10 8 7 6 6 6 5 5 4 5 4 3 2 2 2 2 1 2 1 1 1 1 1 0 0 -0 -0
12 12 12 12 12 12 11 11 11 9 9 10 9 7 6 6 6 5 6 6 5 4 3 3 2 2 2 2 2 1 2 2 2 2 1 0 0 0
13 13 13 13 13 13 12 12 10 9 9 10 10 9 8 7 6 6 6 6 6 5 4 4 3 3 2 2 3 4 4 3 2 1 2 2 1 0
14 14 14 13 12 11 11 11 10 11 11 11 11 10 9 7 8 7 7 6 6 5 6 5 5 4 3 3 5 5 4 3 2 3 2 2 1 1
14 14 13 13 12 10 9 9 10 10 11 11 11 11 10 9 8 8 7 8 8 5 6 6 6 5 4 4 5 5 5 4 4 4 4 3 2 2
13 13 13 12 11 11 10 10 9 9 9 10 12 11 10 9 10 10 9 9 8 6 7 8 6 6 4 5 6 6 6 5 5 5 5 5 3 3
12 12 12 12 11 11 11 11 10 10 11 11 10 10 10 9 10 10 11 11 10 9 7 9 6 5 6 7 7 7 7 7 6 6 6 7 6 4
12 12 12 12 11 9 11 11 11 12 10 10 10 9 9 9 8 11 12 13 13 9 11 12 9 9 8 8 9 8 8 8 7 7 7 7 7 7
13 12 11 11 10 9 11 11 12 13 13 13 12 12 11 11 9 10 12 14 14 14 11 13 13 13 12 10 10 10 10 9 9 8 7 8 8 9
13 13 13 10 9 9 9 12 12 12 12 12 13 13 13 13 13 12 11 12 13 13 12 12 13 13 13 13 12 12 12 11 11 11 9 8 8 9
13 12 13 11 10 9 10 9 9 9 12 14 15 15 14 14 14 14 12 11 11 12 12 12 14 13 14 14 13 13 12 11 12 12 12 10 9 9
11 10 10 10 9 9 8 8 8 14 15 15 15 15 16 15 15 14 11 11 11 11 12 12 13 14 14 15 15 14 13 13 12 13 13 13 12 11
10 9 9 9 9 9 9 10 11 13 14 14 15 15 15 16 15 15 17 14 12 12 11 12 13 13 15 15 15 16 15 15 14 14 14 14 14 12
11 13 12 12 11 12 12 12 13 13 13 14 14 14 13 14 14 16 17 17 14 15 14 12 12 13 13 14 16 16 17 16 15 14 15 16 17 16
8 12 12 12 12 11 12 12 13 12 13 13 13 14 14 15 17 18 17 18 16 17 16 14 14 16 15 14 13 15 17 18 16 15 16 16 18 17
8 9 11 12 12 12 11 12 12 12 13 13 13 14 15 16 13 14 18 16 16 16 15 16 17 16 19 20 16 12 15 16 17 18 15 15 16 17
7 8 9 9 10 10 10 12 11 12 14 14 14 15 16 16 18 17 17 18 18 18 16 16 16 16 18 20 19 16 12 15 17 17 16 16 18 14
7 7 7 7 8 9 9 10 11 13 14 15 13 14 15 16 16 16 16 13 13 14 19 19 16 11 13 15 18 17 15 12 13 17 16 17 18 21
7 6 6 6 7 7 8 9 11 11 13 13 14 15 15 14 15 16 16 17 17 15 16 17 16 18 16 15 17 17 16 15 13 13 13 14 19 22
6 6 5 6 6 7 8 9 11 12 12 13 14 14 15 15 14 15 16 16 18 19 16 17 18 18 17 17 15 17 18 17 17 17 16 13 12 13